This is the latest recevied weather packets stored in our database for station/object K5IDL. If no packets are shown the sender has not sent any weather packets the latest 10 day(s).
| Time | Temp. | Humidity | Pressure | Rain* | Wind** | Luminosity | Snow |
|---|---|---|---|---|---|---|---|
| 1777847976 | 27.78° C | 30% | 1016.8 hPa | 0 mm | - | 25 W/m² | - |
| 1777847674 | 27.78° C | 30% | 1017.2 hPa | 0 mm | - | 25 W/m² | - |
| 1777847369 | 27.78° C | 30% | 1017.2 hPa | 0 mm | - | 25 W/m² | - |
| 1777847068 | 27.78° C | 30% | 1017.1 hPa | 0 mm | - | 26 W/m² | - |
| 1777846766 | 28.33° C | 29% | 1017.1 hPa | 0 mm | - | 25 W/m² | - |
| 1777846464 | 28.33° C | 30% | 1017.3 hPa | 0 mm | - | 51 W/m² | - |
| 1777846160 | 28.33° C | 30% | 1017.1 hPa | 0 mm | - | 76 W/m² | - |
| 1777845856 | 28.33° C | 30% | 1017.1 hPa | 0 mm | - | 28 W/m² | - |
| 1777845554 | 28.33° C | 30% | 1017.2 hPa | 0 mm | - | 83 W/m² | - |
| 1777845251 | 28.33° C | 31% | 1017.3 hPa | 0 mm | - | 31 W/m² | - |
| 1777844948 | 28.33° C | 31% | 1017.4 hPa | 0 mm | - | 34 W/m² | - |
| 1777844645 | 28.33° C | 31% | 1017.3 hPa | 0 mm | - | 31 W/m² | - |
| 1777844343 | 27.78° C | 32% | 1017.3 hPa | 0 mm | - | 39 W/m² | - |
| 1777844041 | 28.33° C | 32% | 1017.5 hPa | 0 mm | - | 79 W/m² | - |
| 1777843736 | 28.33° C | 32% | 1017.5 hPa | 0 mm | - | 221 W/m² | - |
| 1777843435 | 28.33° C | 31% | 1017.6 hPa | 0 mm | - | 271 W/m² | - |
| 1777843132 | 28.89° C | 31% | 1017.9 hPa | 0 mm | - | 149 W/m² | - |
| 1777842828 | 28.33° C | 32% | 1017.7 hPa | 0 mm | - | 37 W/m² | - |
| 1777842523 | 28.33° C | 32% | 1018.1 hPa | 0 mm | - | 58 W/m² | - |
| 1777842221 | 28.89° C | 32% | 1018 hPa | 0 mm | - | 77 W/m² | - |
| 1777841916 | 28.33° C | 31% | 1017.9 hPa | 0 mm | - | 48 W/m² | - |
| 1777841613 | 28.33° C | 32% | 1018.1 hPa | 0 mm | - | 35 W/m² | - |
| 1777841309 | 28.33° C | 33% | 1018.3 hPa | 0 mm | - | 42 W/m² | - |
| 1777841007 | 27.78° C | 33% | 1018.4 hPa | 0 mm | - | 54 W/m² | - |
| 1777840704 | 28.33° C | 34% | 1018.5 hPa | 0 mm | - | 56 W/m² | - |
* Rain latest hour (hover to see other rain measurements)
** Current wind speed in m/s (hover to see current wind gust speed)